Simultaneous Nadir Overpasses (SNOs) Predictions

Prediction of SNOs between FY3D and NOAA-19 Satellite Orbit:

Table of predicted SNOs for the next 14.0 days since TLE Epoch: 3/13/2021
Index Date (FY3D) Time (FY3D) Lat,Lon (FY3D) SZA (FY3D ) Date (NOAA-19) Time (NOAA-19) Lat,Lon (NOAA-19) SZA (NOAA-19 ) Distance(km) Time Diff (sec)
1 03/15/2021 12:49:20 -78.42, 142.90 98.45 03/15/2021 12:48:15 -78.41, 139.16 98.07 83.40 65
2 03/15/2021 13:40:12 78.71, -51.54 81.96 03/15/2021 13:39:01 78.72, -51.42 81.98 3.05 71
3 03/15/2021 14:30:57 -78.72, 115.67 98.04 03/15/2021 14:30:07 -78.70, 115.68 98.04 2.38 50
4 03/15/2021 15:21:41 78.71, -76.92 81.93 03/15/2021 15:21:02 78.70, -77.06 81.95 3.29 39
5 03/15/2021 16:12:26 -78.72, 90.30 98.07 03/15/2021 16:12:07 -78.72, 90.28 98.07 0.92 19
6 03/15/2021 17:03:10 78.71,-102.30 81.90 03/15/2021 17:03:02 78.71,-102.46 81.92 3.63 8
7 03/15/2021 17:53:55 -78.73, 64.92 98.10 03/15/2021 17:54:07 -78.73, 64.89 98.09 0.97 12
8 03/15/2021 18:44:40 78.75,-127.91 81.93 03/15/2021 18:45:02 78.73,-127.86 81.90 2.48 22
9 03/15/2021 19:35:24 -78.73, 39.55 98.12 03/15/2021 19:36:07 -78.75, 39.49 98.12 2.43 43
10 03/15/2021 20:26:09 78.75,-153.28 81.90 03/15/2021 20:27:02 78.74,-153.25 81.87 1.00 53
11 03/15/2021 21:16:54 -78.76, 13.93 98.10 03/15/2021 21:18:07 -78.76, 14.10 98.14 3.59 73



Historial Predications of SNOs between FY3D and NOAA-19
